This is the latest recevied weather packets stored in our database for station/object K0APR. If no packets are shown the sender has not sent any weather packets the latest 1 day(s).
| Time | Temp. | Humidity | Pressure | Rain* | Wind** | Luminosity | Snow |
|---|---|---|---|---|---|---|---|
| 1778005119 | 8.89° C | 39% | 1012.3 hPa | 0 mm | 3.58 m/s, 339° | 278 W/m² | - |
| 1778004817 | 8.89° C | 39% | 1012.3 hPa | 0 mm | 6.71 m/s, 311° | 228 W/m² | - |
| 1778004513 | 9.44° C | 39% | 1012.3 hPa | 0 mm | 2.24 m/s, 293° | 201 W/m² | - |
| 1778004210 | 8.89° C | 38% | 1012.3 hPa | 0 mm | 4.02 m/s, 338° | 239 W/m² | - |
| 1778003906 | 8.89° C | 39% | 1012.3 hPa | 0 mm | 3.58 m/s, 300° | 283 W/m² | - |
| 1778003603 | 8.89° C | 39% | 1012.3 hPa | 0 mm | 5.36 m/s, 267° | 298 W/m² | - |
| 1778003299 | 8.89° C | 39% | 1012.3 hPa | 0 mm | 4.47 m/s, 311° | 250 W/m² | - |
| 1778002997 | 8.89° C | 39% | 1012 hPa | 0 mm | 2.68 m/s, 324° | 283 W/m² | - |
| 1778002693 | 8.89° C | 39% | 1012.3 hPa | 0 mm | 4.02 m/s, 318° | 258 W/m² | - |
| 1778002389 | 8.89° C | 38% | 1012 hPa | 0 mm | 4.92 m/s, 300° | 287 W/m² | - |
| 1778002092 | 10° C | 37% | 1012 hPa | 0 mm | 2.24 m/s, 316° | 246 W/m² | - |
| 1778001784 | 9.44° C | 36% | 1012 hPa | 0 mm | 3.58 m/s, 308° | 398 W/m² | - |
| 1778001478 | 8.89° C | 37% | 1012 hPa | 0 mm | 4.02 m/s, 9° | 333 W/m² | - |
| 1778001175 | 8.89° C | 38% | 1012.3 hPa | 0 mm | 2.68 m/s, 321° | 333 W/m² | - |
| 1778000872 | 8.89° C | 39% | 1012 hPa | 0 mm | 7.15 m/s, 337° | 235 W/m² | - |
| 1778000569 | 9.44° C | 38% | 1012 hPa | 0 mm | 3.13 m/s, 320° | 399 W/m² | - |
| 1778000264 | 8.33° C | 40% | 1012.3 hPa | 0 mm | 4.02 m/s, 314° | 242 W/m² | - |
| 1777999960 | 7.78° C | 42% | 1012.3 hPa | 0 mm | 1.34 m/s, 308° | 273 W/m² | - |
| 1777999656 | 8.33° C | 42% | 1012 hPa | 0 mm | 4.47 m/s, 330° | 212 W/m² | - |
| 1777999353 | 8.33° C | 43% | 1012.3 hPa | 0 mm | 1.34 m/s, 287° | 222 W/m² | - |
| 1777999051 | 8.33° C | 41% | 1012.3 hPa | 0 mm | 7.15 m/s, 328° | 223 W/m² | - |
| 1777998750 | 8.89° C | 43% | 1012.3 hPa | 0 mm | 2.24 m/s, 315° | 282 W/m² | - |
| 1777998446 | 8.89° C | 41% | 1012 hPa | 0 mm | 4.92 m/s, 324° | 947 W/m² | - |
| 1777998143 | 7.78° C | 41% | 1012.3 hPa | 0 mm | 6.26 m/s, 307° | 287 W/m² | - |
| 1777997840 | 8.33° C | 42% | 1012.3 hPa | 0 mm | 6.26 m/s, 351° | 262 W/m² | - |
* Rain latest hour (hover to see other rain measurements)
** Current wind speed in m/s (hover to see current wind gust speed)